Starlink 6353

operational
NORAD ID: 57056 Int'l Des: 2023-088 Owner: SPXS Country: US Constellation: starlink
LEOCIRCULAR

Über Starlink 6353

Beschreibung wird geladen...

Live-Position

3D-Globus wird geladen...

Nächste Überflüge

Höhenverlauf

Altitude vs Time

uPlot chart will show altitude changes over time

Zweizeiliger Elementsatz

1 57056U 23088J 25260.20288630 .00000795 00000-0 73925-4 0 9999
2 57056 43.0049 330.0834 0001322 275.6196 84.4496 15.02532861124274
Epoch: 17. Sept. 2025 • Age: 18 hours

Aktueller Status

Höhe 558.7 km
Geschwindigkeit 7.58 km/s
Subsatellitenpunkt 16.17°N, 144.16°E
Startdatum 22. Juni 2023
Alter 2.2 years
Typ internet

Technische Details

Klassifizierung Payload
Masse 305.00 kg
Trockenmasse 290.00 kg
Gesamtmasse 305.00 kg
Länge 0.20 m
Durchmesser 2.80 m
Spannweite 9.00 m
Form Box + pan
Hersteller SPXS
Bus-Typ Starlink
Phasenstatus In Orbit
Besitzer/Staat SPXS/US

Große Konstellationen

Loading constellations...